Weather History for Visalia, CA

Change the Weather History Date:

Monday, April 14, 2014

  Actual Average Record
Temperature  
Mean Temperature 72 °F -  
Max Temperature 84 °F 73 °F 96 °F (1962)
Min Temperature 60 °F 49 °F 38 °F (1945)
Cooling Degree Days 7    
Growing Degree Days 22 (Base 50)    
Moisture  
Dew Point 48 °F    
Average Humidity 40    
Maximum Humidity 64    
Minimum Humidity 20    
Precipitation  
Precipitation 0.00 in - - ()
Sea Level Pressure  
Sea Level Pressure 30.02 in    
Wind  
Wind Speed 3 mph (WNW)    
Max Wind Speed 8 mph    
Max Gust Speed -    
Visibility 10 miles    
Events      
Averages and records for this station are not official NWS values.
T = Trace of Precipitation, MM = Missing Value Source: NWS Daily Summary

Daily Weather History Graph

Daily Weather History Graph

Search for Another Location

Airport:

Trip Planner

Search our weather history database for the weather conditions in past years. The results will help you decide how hot, cold, wet, or windy it might be!

Date:

Astronomy

Apr. 14, 2014 Rise Set
Actual Time 6:25 AM PDT 7:30 PM PDT
Civil Twilight 5:58 AM PDT 7:57 PM PDT
Nautical Twilight 5:27 AM PDT 8:28 PM PDT
Astronomical Twilight 4:54 AM PDT 9:01 PM PDT
Moon 7:14 PM PDT (4/14) 5:59 AM PDT (4/14)
Length of Visible Light 13h 58m
Length of Day
13h 05m
Full, 100% of the Moon is Illuminated
Apr 14
Full
Apr 15
Full
Apr 22
Last Quarter
Apr 28
New
May 6
First Quarter

Hourly Weather History & Observations

Time (PDT) Temp. Dew Point Humidity Pressure Visibility Wind Dir Wind Speed Gust Speed Precip Events Conditions
7:55 AM 60.8 °F 48.2 °F 63% 30.05 in 10.0 mi ESE 3.5 mph - N/A   Clear
8:15 AM 60.8 °F 48.2 °F 63% 30.06 in 9.0 mi Calm Calm - N/A   Clear
8:35 AM 62.6 °F 50.0 °F 63% 30.06 in 10.0 mi Calm Calm - N/A   Clear
8:55 AM 64.4 °F 51.8 °F 64% 30.06 in 10.0 mi Calm Calm - N/A   Clear
9:15 AM 66.2 °F 51.8 °F 60% 30.07 in 10.0 mi Calm Calm - N/A   Clear
9:35 AM 66.2 °F 53.6 °F 64% 30.06 in 10.0 mi Calm Calm - N/A   Clear
9:55 AM 69.8 °F 53.6 °F 56% 30.07 in 10.0 mi Calm Calm - N/A   Clear
10:15 AM 71.6 °F 53.6 °F 53% 30.07 in 10.0 mi Calm Calm - N/A   Clear
10:35 AM 71.6 °F 53.6 °F 53% 30.07 in 10.0 mi SSW 3.5 mph - N/A   Clear
10:55 AM 73.4 °F 53.6 °F 50% 30.08 in 10.0 mi West 4.6 mph - N/A   Clear
11:15 AM 75.2 °F 55.4 °F 50% 30.07 in 10.0 mi Calm Calm - N/A   Clear
11:35 AM 75.2 °F 53.6 °F 47% 30.08 in 10.0 mi West 5.8 mph - N/A   Clear
11:55 AM 77.0 °F 55.4 °F 47% 30.07 in 10.0 mi Calm Calm - N/A   Clear
12:15 PM 78.8 °F 53.6 °F 42% 30.07 in 10.0 mi West 3.5 mph - N/A   Clear
12:35 PM 78.8 °F 53.6 °F 42% 30.07 in 10.0 mi West 8.1 mph - N/A   Clear
12:55 PM 80.6 °F 48.2 °F 32% 30.06 in 10.0 mi West 8.1 mph - N/A   Clear
1:15 PM 80.6 °F 48.2 °F 32% 30.07 in 10.0 mi West 5.8 mph - N/A   Clear
1:35 PM 80.6 °F 50.0 °F 34% 30.06 in 10.0 mi WNW 3.5 mph - N/A   Clear
1:55 PM 80.6 °F 48.2 °F 32% 30.06 in 10.0 mi NW 4.6 mph - N/A   Clear
2:15 PM 80.6 °F 48.2 °F 32% 30.04 in 10.0 mi Calm Calm - N/A   Clear
2:35 PM 82.4 °F 50.0 °F 32% 30.03 in 10.0 mi NW 6.9 mph - N/A   Clear
2:55 PM 82.4 °F 50.0 °F 32% 30.02 in 8.0 mi Calm Calm - N/A   Clear
3:15 PM 82.4 °F 50.0 °F 32% 30.01 in 10.0 mi WNW 5.8 mph - N/A   Clear
3:35 PM 82.4 °F 50.0 °F 32% 30.02 in 10.0 mi West 6.9 mph - N/A   Clear
3:55 PM 82.4 °F 46.4 °F 28% 30.01 in 10.0 mi West 4.6 mph - N/A   Clear
4:15 PM 84.2 °F 46.4 °F 27% 29.99 in 10.0 mi West 4.6 mph - N/A   Clear
4:35 PM 84.2 °F 44.6 °F 25% 29.98 in 10.0 mi West 4.6 mph - N/A   Clear
4:55 PM 82.4 °F 42.8 °F 25% 29.97 in 10.0 mi Calm Calm - N/A   Clear
5:15 PM 84.2 °F 42.8 °F 23% 29.97 in 10.0 mi Calm Calm - N/A   Clear
5:35 PM 84.2 °F 39.2 °F 20% 29.97 in 10.0 mi WNW 4.6 mph - N/A   Clear
5:55 PM 84.2 °F 39.2 °F 20% 29.96 in 10.0 mi West 3.5 mph - N/A   Clear
6:15 PM 82.4 °F 42.8 °F 25% 29.96 in 10.0 mi WSW 4.6 mph - N/A   Clear
6:35 PM 84.2 °F 42.8 °F 23% 29.96 in 10.0 mi NW 6.9 mph - N/A   Clear
6:55 PM 80.6 °F 44.6 °F 28% 29.96 in 10.0 mi NW 6.9 mph - N/A   Clear
7:15 PM 80.6 °F 42.8 °F 26% 29.96 in 10.0 mi NNW 4.6 mph - N/A   Clear
7:35 PM 78.8 °F 42.8 °F 28% 29.96 in 10.0 mi North 3.5 mph - N/A   Clear
7:55 PM 77.0 °F 42.8 °F 29% 29.96 in 10.0 mi North 4.6 mph - N/A   Clear
8:15 PM 75.2 °F 44.6 °F 34% 29.97 in 10.0 mi North 3.5 mph - N/A   Clear
8:35 PM 73.4 °F 46.4 °F 38% 29.98 in 10.0 mi NW 4.6 mph - N/A   Clear
8:55 PM 73.4 °F 46.4 °F 38% 29.99 in 10.0 mi NNW 3.5 mph - N/A   Clear
9:15 PM 73.4 °F 46.4 °F 38% 30.00 in 10.0 mi NNW 3.5 mph - N/A   Clear
9:35 PM 71.6 °F 46.4 °F 41% 30.00 in 10.0 mi NNW 4.6 mph - N/A   Clear
9:55 PM 71.6 °F 46.4 °F 41% 30.00 in 10.0 mi NW 5.8 mph - N/A   Clear
10:15 PM 69.8 °F 46.4 °F 43% 30.00 in 10.0 mi NNW 4.6 mph - N/A   Clear
10:35 PM 69.8 °F 46.4 °F 43% 30.00 in 10.0 mi Calm Calm - N/A   Clear
10:55 PM 68.0 °F 46.4 °F 46% 30.00 in 10.0 mi NNW 3.5 mph - N/A   Clear
11:15 PM 66.2 °F 46.4 °F 49% 29.99 in 10.0 mi WNW 4.6 mph - N/A   Clear
11:35 PM 64.4 °F 48.2 °F 56% 30.00 in 10.0 mi Calm Calm - N/A   Clear
11:55 PM 64.4 °F 48.2 °F 56% 30.01 in 10.0 mi Calm Calm - N/A   Clear